#timestamp,LO_Frequency,Hit 
1498658415.9,286046984.7,N
1498658435.7,286046982.8,N
1498658455.5,286046982.5,N
1498658475.4,286046982.8,N
1498658495.2,286046982.8,N
1498658515.0,286046982.4,N
1498658515.9,286046982.4,N
1498658535.8,286046983.3,N
1498658555.6,286046983.1,N
1498658575.4,286046982.9,N
1498658595.3,286046983.3,N
1498658615.1,286046982.3,N
1498658616.0,286046982.3,N
1498658635.8,286046985.1,N
1498658655.6,286046982.9,N
1498658675.5,286046982.8,N
1498658695.3,286046982.7,N
1498658715.1,286046983.6,N
1498658735.9,286046982.4,N
1498658755.7,286046984.9,N
1498658775.5,286046985.6,N
1498658795.4,286046985.6,N
1498658815.2,286046988.2,N
1498658835.0,286046985.8,N
1498658835.9,286046985.8,N
1498658855.8,286046985.6,N
1498658875.6,286046984.7,N
1498658895.4,286046986.6,N
1498658915.3,286046984.1,N
1498658935.1,286046983.9,N
1498658936.0,286046983.9,N
1498658955.8,286046982.9,N
1498658975.6,286046985.2,N
1498658995.5,286046984.2,N
1498659015.3,286046986.6,N
1498659035.1,286046985.8,N
1498659055.9,286046985.9,N
1498659075.7,286046988.4,N
1498659095.5,286046984.5,N
1498659115.4,286046983.4,N
1498659135.2,286046980.5,N
1498659155.0,286046982.8,N
1498659155.9,286046982.8,N
1498659175.8,286046983.0,N
1498659195.6,286046982.6,N
1498659215.4,286046985.0,N
1498659235.3,286046982.7,N
1498659255.1,286046982.2,N
1498659256.0,286046982.2,N
1498659275.8,286046985.1,N
1498659295.7,286046983.9,N
1498659315.5,286046983.7,N
1498659335.3,286046982.1,N
1498659355.1,286046984.3,N
1498659375.9,286046983.6,N
1498659395.7,286046980.8,N
1498659415.5,286046980.6,N
1498659435.4,286046982.8,N
1498659455.2,286046985.2,N
1498659475.0,286046982.5,N
1498659475.9,286046982.5,N
1498659495.8,286046984.6,N
1498659515.6,286046984.2,N
1498659535.4,286046984.0,N
1498659555.3,286046982.1,N
1498659575.1,286046982.5,N
1498659595.8,286046980.8,N
1498659615.7,286046980.9,N
1498659635.5,286046981.2,N
1498659655.3,286046983.5,N
1498659675.2,286046983.1,N
1498659695.9,286046982.3,N
1498659715.7,286046980.9,N
1498659735.6,286046983.6,N
1498659755.4,286046979.3,N
1498659775.2,286046981.8,N
1498659795.0,286046981.6,N
1498659796.0,286046981.6,N
1498659815.8,286046979.1,N
1498659835.6,286046979.1,N
1498659855.4,286046979.9,N
1498659875.3,286046979.6,N
1498659895.1,286046979.7,N
1498659915.8,286046980.2,N
1498659935.7,286046978.0,N
1498659955.5,286046978.6,N
1498659975.3,286046976.0,N
1498659995.2,286046975.9,N
1498660015.9,286046976.1,N
1498660035.7,286046975.8,N
1498660055.6,286046976.6,N
1498660075.4,286046980.3,N
1498660095.2,286046977.3,N
1498660115.0,286046980.3,N
1498660115.9,286046980.3,N
1498660135.8,286046976.4,N
1498660155.6,286046976.3,N
1498660175.4,286046974.5,N
1498660195.3,286046977.1,N
1498660215.1,286046975.4,N
1498660216.0,286046975.4,N
1498660235.8,286046972.5,N
1498660255.7,286046975.6,N
1498660275.5,286046972.9,N
1498660295.3,286046975.6,N
1498660315.2,286046975.6,N
1498660335.9,286046972.6,N
1498660355.7,286046974.3,N
1498660375.5,286046974.7,N
1498660395.4,286046974.3,N
1498660415.2,286046975.3,N
1498660435.0,286046975.3,N
1498660435.9,286046975.3,N
1498660455.8,286046975.4,N
1498660475.6,286046974.8,N
1498660495.4,286046972.6,N
1498660515.3,286046975.4,N
1498660535.1,286046974.3,N
1498660536.0,286046974.3,N
1498660555.8,286046974.4,N
1498660575.7,286046975.6,N
1498660595.5,286046972.5,N
1498660615.3,286046974.8,N
1498660635.2,286046972.7,N
1498660655.9,286046972.9,N
1498660675.7,286046973.7,N
1498660695.6,286046973.2,N
1498660715.4,286046971.3,N
1498660735.2,286046971.0,N
1498660755.0,286046971.8,N
1498660755.9,286046971.8,N
1498660775.8,286046971.6,N
1498660795.6,286046971.1,N
1498660815.4,286046971.2,N
1498660835.3,286046971.2,N
1498660855.1,286046972.2,N
1498660856.0,286046972.2,N
1498660875.8,286046971.7,N
1498660895.7,286046971.6,N
1498660915.5,286046972.0,N
1498660935.3,286046971.8,N
1498660955.2,286046969.4,N
1498660975.9,286046969.4,N
1498660995.7,286046970.5,N
1498661015.6,286046969.8,N
1498661035.4,286046969.4,N
1498661055.2,286046972.3,N
1498661075.0,286046972.0,N
1498661075.9,286046972.0,N
1498661095.8,286046971.5,N
1498661115.6,286046972.0,N
1498661135.4,286046972.2,N
1498661155.3,286046972.4,N
1498661175.1,286046972.2,N
1498661195.8,286046969.7,N
1498661215.7,286046970.0,N
1498661235.5,286046972.3,N
1498661255.3,286046969.5,N
1498661275.2,286046969.9,N
1498661295.9,286046969.3,N
1498661315.7,286046970.2,N
1498661335.6,286046970.2,N
1498661355.4,286046970.3,N
1498661375.2,286046968.9,N
1498661395.0,286046968.2,N
1498661395.9,286046968.2,N
1498661415.8,286046967.9,N
1498661435.6,286046968.3,N
1498661455.4,286046966.4,N
1498661475.3,286046966.7,N
1498661495.1,286046967.4,N
1498661515.8,286046966.8,N
1498661535.7,286046968.8,N
1498661555.5,286046968.5,N
1498661575.3,286046969.0,N
1498661595.2,286046966.7,N
1498661615.9,286046966.1,N
1498661635.7,286046965.3,N
1498661655.6,286046966.7,N
1498661675.4,286046966.6,N
1498661695.2,286046967.6,N
1498661715.0,286046967.2,N
1498661715.9,286046967.2,N
1498661735.8,286046967.1,N
1498661755.6,286046964.9,N
1498661775.4,286046964.6,N
1498661795.3,286046964.7,N
1498661815.1,286046964.7,N
1498661835.8,286046964.9,N
1498661855.7,286046964.5,N
1498661875.5,286046964.9,N
1498661895.3,286046965.2,N
1498661915.2,286046966.0,N
1498661935.9,286046963.1,N
1498661955.7,286046965.9,N
1498661975.6,286046963.3,N
1498661995.4,286046963.3,N
